Wind_Speed
20 20 19 19 20 21 21 22 21 20 20 19 21 22 23 25 26 27 28 28 28 29 28 28 28 27 27 28 28 27 25 25 25 24 24 24 23 23 22 23 21 21 21 21 21 19 19 19 18 18 17 17 18 18 19 20 21 21 22 23 23 24 23 22 20 20 20 18 18 19 19 19 19 19 20 20 20 20 19 19 19 19 18 18 17
23 21 21 20 21 21 21 23 21 20 19 20 21 22 24 24 26 27 27 27 27 28 27 27 26 26 26 27 27 25 25 25 25 25 25 24 23 23 23 22 21 21 21 21 21 19 19 19 18 19 18 18 19 19 20 21 22 23 22 23 24 24 23 22 20 20 20 19 19 19 19 18 18 18 18 19 19 19 18 18 18 18 18 17 17
24 23 22 21 21 21 22 23 21 20 19 20 22 23 24 24 25 25 26 26 26 26 26 25 25 25 26 26 25 24 24 25 25 26 25 24 23 23 23 22 22 22 21 21 20 19 18 19 18 19 19 19 21 21 21 22 22 23 23 24 24 23 22 21 20 20 18 18 19 20 19 17 16 16 17 17 17 17 17 17 17 17 16 16 17
25 24 22 21 21 22 23 23 22 20 19 21 22 23 23 23 24 24 24 25 25 24 24 24 24 25 25 25 24 24 25 25 26 26 25 24 23 23 23 23 22 22 21 21 20 19 18 18 18 18 18 19 20 20 21 22 22 23 23 23 23 23 22 20 20 19 17 16 17 19 18 17 16 15 15 15 15 16 16 16 15 15 15 15 16
26 25 23 22 21 23 23 23 22 20 20 21 23 23 23 23 23 23 24 24 24 23 23 24 24 24 25 25 24 25 25 25 26 26 25 24 23 23 22 22 22 22 21 20 20 20 18 17 18 17 18 18 19 19 21 22 22 22 21 22 22 22 20 19 18 17 16 15 14 16 17 16 16 14 14 16 15 15 15 15 14 14 14 15 16
27 26 24 23 22 23 23 23 22 20 20 21 23 23 23 23 22 22 23 23 22 22 23 23 24 24 24 24 25 26 25 25 26 26 25 24 24 23 22 22 22 21 21 20 20 20 18 16 17 17 17 18 18 18 19 20 19 18 16 16 16 16 17 17 16 15 14 14 13 14 15 16 16 16 15 15 15 15 15 15 15 15 15 15 16
28 28 26 24 23 23 23 23 22 21 20 21 23 22 22 22 21 21 22 22 21 22 23 23 23 23 23 24 25 25 25 26 26 26 26 25 24 23 22 21 21 21 20 20 20 19 17 15 16 16 16 17 17 18 19 18 15 12 10 8 8 10 13 15 15 14 14 14 14 15 15 15 16 16 15 13 14 15 15 15 15 16 17 17 16
27 28 27 25 24 24 24 23 21 21 20 21 22 22 22 21 21 21 21 21 22 23 22 22 22 22 23 24 24 25 24 25 26 26 26 25 24 23 22 21 20 20 20 20 19 18 16 15 15 15 15 16 18 18 17 15 13 10 9 9 8 10 12 14 14 13 13 14 15 16 15 14 14 15 14 13 14 14 15 15 15 16 17 16 15
27 26 26 26 25 25 24 23 21 21 21 21 21 21 21 20 21 21 21 21 22 22 22 21 22 21 22 23 24 24 24 25 25 25 25 24 24 22 21 20 19 19 19 19 18 18 17 16 15 15 16 17 18 17 15 13 12 10 11 13 13 13 14 14 13 13 14 15 16 16 16 15 15 14 14 15 15 14 15 15 16 16 16 15 14
26 25 26 27 26 25 25 24 22 21 21 21 21 21 21 20 20 20 21 21 21 21 21 20 21 21 22 23 23 24 23 24 24 24 23 23 22 21 20 19 18 17 18 19 18 19 18 17 17 17 17 17 16 14 14 13 11 11 12 14 14 15 15 14 13 13 15 16 17 16 17 17 17 17 15 16 16 15 16 16 16 16 16 15 15
25 25 26 26 26 25 25 24 22 21 20 20 20 21 21 20 19 20 20 21 21 21 20 20 20 21 22 22 23 23 22 23 24 22 22 21 21 20 19 18 17 16 17 19 19 19 19 18 18 17 17 16 14 13 13 12 11 12 13 14 14 14 13 12 12 14 16 17 17 16 16 16 17 17 17 16 15 15 16 16 16 16 15 15 15
25 25 25 26 25 25 25 24 23 21 20 20 20 20 20 19 20 19 20 21 20 20 20 20 20 20 21 22 22 22 21 22 22 21 21 21 21 20 18 17 17 15 16 18 19 19 19 18 17 16 16 14 13 13 13 12 11 13 14 14 13 12 11 11 12 14 16 17 17 16 15 16 16 16 16 15 14 15 15 15 15 15 14 15 15
25 24 25 26 25 24 24 23 23 21 20 20 19 20 20 19 19 19 19 20 20 19 19 19 20 20 21 22 22 21 21 21 21 21 21 20 19 18 18 17 16 14 13 16 18 19 19 18 17 16 14 13 13 14 13 11 12 14 14 13 12 11 10 11 13 15 17 18 18 17 17 18 17 15 15 14 14 15 14 14 14 14 14 14 15
25 24 25 25 24 23 22 23 22 21 20 20 19 19 19 19 19 18 19 20 19 19 18 19 20 20 20 21 22 21 20 20 20 21 20 19 18 17 17 16 15 14 12 14 17 19 19 18 17 15 13 13 13 12 11 11 13 14 14 12 11 9 10 11 14 16 18 19 18 18 18 17 16 15 15 14 15 15 14 14 13 13 14 14 14
26 25 26 25 24 22 20 22 22 21 20 20 20 19 19 19 18 18 18 19 19 18 18 18 19 19 20 21 21 21 21 20 20 20 19 18 17 17 16 15 14 14 13 13 16 19 20 19 16 14 14 14 12 10 10 10 11 13 13 11 10 9 10 13 16 18 20 19 18 18 17 16 15 15 14 14 14 14 14 14 13 13 13 13 13
25 25 26 24 23 21 20 21 21 21 20 19 19 18 18 18 18 18 17 18 18 18 17 17 18 19 20 21 20 20 20 20 19 19 18 17 17 16 15 14 15 15 13 13 15 20 22 20 17 15 15 13 10 10 11 10 10 12 12 11 10 10 12 14 18 19 19 19 18 18 17 15 14 14 14 13 13 13 13 13 13 13 13 12 12
23 25 25 23 22 21 21 19 19 19 18 18 18 18 17 17 18 17 16 16 17 16 16 16 17 19 20 20 19 19 19 19 18 18 17 16 15 15 14 15 16 15 14 13 15 20 23 20 18 17 16 12 11 12 13 13 13 13 12 10 10 11 12 15 18 18 18 19 19 18 16 14 13 13 13 13 12 12 12 13 13 12 12 12 11
22 24 24 23 22 21 20 19 18 17 17 17 17 17 16 17 18 16 16 15 16 15 15 16 17 18 18 19 19 18 18 17 17 17 16 15 14 14 14 16 16 16 14 13 15 20 22 21 20 19 16 14 14 15 16 17 16 14 12 10 10 11 13 15 17 18 19 19 18 16 15 14 14 13 13 13 12 13 12 12 12 11 12 12 11
21 22 22 21 21 21 20 19 18 18 18 18 17 16 15 17 18 16 16 16 15 15 14 16 17 17 17 17 17 16 16 16 16 16 15 15 14 13 14 16 16 16 15 14 16 21 23 23 21 19 18 16 16 16 17 18 17 14 12 10 11 12 14 15 17 18 19 19 17 16 16 16 14 13 13 13 13 12 12 11 11 11 11 11 10
21 22 22 21 21 21 20 19 19 18 18 19 18 16 16 17 18 17 16 16 16 15 15 17 16 17 17 16 15 14 14 14 15 14 14 14 13 13 14 15 16 17 15 14 17 22 24 24 21 19 19 17 16 16 16 17 15 13 12 11 11 12 14 15 17 18 18 17 16 17 16 15 14 14 14 13 13 12 11 11 11 11 10 10 10
20 21 22 22 21 21 21 20 20 19 19 19 19 17 17 19 18 17 16 16 16 15 17 17 16 16 18 17 16 15 14 14 14 13 13 13 12 13 15 15 16 17 15 14 17 22 25 24 21 19 19 17 16 15 15 14 13 12 11 11 11 13 14 15 17 17 16 16 16 16 15 14 14 14 14 13 12 11 11 11 11 11 11 10 10
18 19 20 22 22 21 21 21 21 21 20 20 19 18 19 20 19 17 16 16 16 16 17 17 16 17 19 18 17 16 14 14 13 13 13 12 12 13 14 16 16 16 15 13 16 22 25 24 21 19 18 16 14 14 14 14 12 11 11 11 11 13 14 15 16 15 14 14 15 14 13 14 14 14 14 13 13 12 11 11 10 11 11 11 10
18 18 19 21 21 22 22 22 22 21 20 20 20 19 20 20 19 18 17 16 16 17 17 17 17 17 19 19 17 16 15 14 13 12 13 12 12 12 14 16 16 15 15 13 14 21 24 23 21 19 17 15 13 13 14 15 13 12 11 10 11 12 13 14 14 14 14 15 14 12 12 12 13 14 14 14 13 12 12 11 10 11 11 10 10
14 15 16 18 19 21 21 21 21 20 20 19 19 19 20 20 19 20 18 18 18 18 18 18 17 17 18 18 17 16 14 13 12 12 13 12 11 12 13 15 16 15 16 14 14 18 22 22 20 18 16 14 12 13 14 15 14 13 11 10 11 12 12 13 13 13 14 14 13 11 11 11 11 12 13 14 14 13 12 11 10 10 10 10 10
12 11 11 13 15 17 19 19 19 19 19 19 20 21 20 20 20 20 19 19 18 19 18 18 18 17 17 17 16 16 14 13 12 13 14 14 13 13 13 15 16 16 16 16 14 16 20 22 20 17 15 13 12 12 12 13 13 13 12 11 11 11 12 12 13 13 13 13 12 10 10 11 10 9 10 13 14 13 12 11 10 9 10 10 10
19 17 15 15 14 16 17 17 17 18 18 18 19 20 18 19 19 19 19 18 18 18 18 18 18 17 16 16 16 16 15 14 13 14 15 15 15 14 14 15 16 16 16 17 16 16 18 20 19 17 15 13 11 11 10 10 11 13 12 11 11 11 11 12 12 13 13 12 11 10 10 10 10 9 9 10 11 13 13 11 10 9 9 10 9
25 24 22 21 18 17 18 17 17 16 15 15 16 16 16 17 18 17 18 18 18 18 18 18 18 17 17 16 17 17 16 15 14 14 15 16 15 14 15 15 15 15 15 16 17 17 17 18 18 16 14 12 10 9 9 8 9 11 12 12 11 10 11 11 12 13 13 12 11 11 11 10 10 9 8 8 9 11 12 11 10 9 9 9 9
26 27 25 25 22 20 19 18 18 18 16 14 15 17 16 16 16 14 16 18 18 19 19 19 18 17 17 17 17 17 17 16 15 15 15 16 15 14 14 15 14 14 15 15 17 18 18 18 17 15 13 10 9 8 9 8 8 10 11 12 11 11 11 11 12 13 12 12 11 10 9 9 10 9 7 8 8 9 11 10 9 8 9 9 9
23 25 26 26 25 24 23 21 21 20 19 18 19 20 18 17 17 14 15 17 18 19 19 18 18 18 17 17 17 17 17 17 16 16 15 15 14 12 13 14 14 14 14 15 16 17 18 18 17 15 12 9 7 8 10 10 9 10 10 11 11 11 12 11 12 12 12 11 11 9 9 10 9 8 8 8 7 7 9 10 9 9 9 8 8
21 23 25 25 26 26 26 25 24 21 22 23 21 21 19 17 17 16 17 17 17 18 19 18 18 18 18 18 17 17 17 17 17 16 15 14 13 12 13 15 15 15 14 15 15 16 17 18 17 15 12 9 7 7 11 11 10 11 10 9 11 12 12 11 11 11 11 11 10 9 9 9 9 9 8 8 7 7 8 9 9 9 8 8 8
22 24 26 26 26 26 26 27 27 25 26 26 24 21 18 16 17 18 18 18 18 18 19 19 19 19 19 19 18 17 17 17 16 16 15 14 14 13 13 14 16 16 15 15 16 15 15 16 15 13 11 9 8 8 11 12 11 11 11 10 11 12 11 11 11 11 11 11 10 10 10 9 9 8 8 8 7 7 7 8 8 8 9 9 10
26 27 28 28 27 26 26 27 28 29 30 30 26 23 21 19 20 20 19 19 19 19 21 21 20 20 20 19 19 18 18 18 17 16 15 15 15 14 13 14 15 15 15 15 16 16 15 14 12 11 10 9 8 10 13 12 11 12 12 12 12 12 12 11 11 11 11 11 11 11 11 10 9 8 8 8 8 8 7 8 9 10 10 10 10
30 28 27 27 27 28 28 29 29 30 32 31 28 25 24 23 22 21 20 21 21 21 22 22 21 22 20 19 19 18 19 18 17 16 16 16 16 15 14 14 14 15 14 14 15 15 14 13 11 9 9 8 9 13 14 13 12 12 12 13 14 13 12 11 11 11 11 11 12 11 11 10 10 9 8 9 10 9 9 9 10 10 10 9 10
30 28 27 27 28 30 31 31 30 28 28 27 27 27 26 25 24 23 22 22 22 23 24 24 23 23 21 20 19 20 20 19 18 17 17 17 16 16 15 13 13 14 14 13 13 13 13 11 10 10 10 8 11 15 15 14 13 13 13 14 14 14 12 11 11 11 12 11 11 11 10 11 11 11 10 10 10 9 9 9 9 10 9 9 9
26 27 27 28 30 31 30 29 27 28 27 24 25 28 28 27 26 24 23 22 24 25 26 25 24 23 22 21 21 21 21 21 19 18 18 18 17 16 15 14 13 13 14 14 12 12 13 12 11 12 12 11 13 15 15 14 14 13 14 15 15 14 13 12 12 12 12 11 10 10 11 12 12 12 11 10 9 9 9 8 8 9 8 8 7
23 27 29 28 26 24 21 20 23 28 28 25 25 26 26 26 26 25 23 23 24 26 26 25 24 23 22 21 22 22 22 22 20 19 20 19 18 16 16 15 13 14 15 15 14 14 15 15 14 14 13 13 15 16 15 14 14 14 14 14 15 14 13 12 12 13 13 11 10 10 12 13 12 11 11 10 9 8 7 7 7 7 7 7 6
22 27 30 26 20 18 15 16 24 28 24 22 23 24 24 25 25 25 25 25 26 27 27 25 24 23 23 23 23 23 23 23 21 20 20 19 17 17 17 16 15 15 16 16 16 16 17 17 15 14 14 14 15 16 15 14 14 14 13 13 14 14 13 13 12 13 14 13 12 12 12 12 11 11 10 9 8 6 6 6 6 6 7 6 5
23 27 27 23 20 19 19 20 27 31 26 24 24 24 24 23 24 25 25 27 28 28 27 26 25 24 24 24 24 25 25 24 23 21 20 18 17 18 18 17 17 16 17 18 18 17 17 18 16 13 12 13 14 16 16 15 14 13 12 11 12 13 13 13 13 14 14 13 13 13 13 12 11 10 10 8 7 6 6 5 5 5 6 6 6
22 22 22 21 21 21 21 22 29 33 32 29 27 27 25 23 24 24 23 25 26 26 26 26 26 25 24 25 25 26 26 26 25 22 20 19 18 20 19 18 20 18 19 20 19 18 17 16 15 14 13 13 14 16 16 15 14 13 11 9 9 11 13 13 13 14 14 14 14 13 13 12 11 9 9 8 6 5 5 5 4 4 5 5 6
20 22 22 22 22 23 23 26 30 32 33 32 31 31 28 24 24 23 23 25 26 26 27 26 25 24 24 25 26 26 26 27 27 23 22 21 20 21 21 20 21 20 20 21 19 17 17 16 15 15 15 14 12 15 16 16 15 13 11 10 8 8 10 12 13 13 13 13 13 14 12 10 10 10 9 7 6 5 4 4 4 4 4 5 5
21 23 25 26 26 28 30 30 29 30 34 36 35 35 32 27 25 25 26 27 27 27 27 26 24 23 24 25 27 27 26 27 28 25 23 22 21 22 23 22 22 21 21 21 19 17 17 16 15 16 17 16 14 15 17 18 16 13 11 11 9 7 6 7 9 11 13 13 12 13 12 10 9 10 9 7 6 4 4 4 4 4 4 5 5
24 26 28 30 31 31 31 31 31 32 36 39 38 37 36 34 31 29 30 30 30 28 27 27 25 24 24 26 28 28 27 27 28 27 25 25 23 23 24 24 22 21 20 18 17 18 18 18 19 19 18 18 17 17 19 16 13 11 10 9 7 6 5 4 5 8 11 12 13 10 9 9 9 10 9 7 6 4 3 3 3 3 4 5 5
25 27 29 30 30 29 28 30 33 34 36 37 36 37 36 36 35 33 32 30 29 29 28 27 26 25 25 27 27 28 27 27 28 27 26 27 26 25 26 25 23 21 19 18 18 19 19 20 21 21 19 17 17 18 19 15 14 15 11 6 3 3 2 3 4 5 8 10 12 9 7 8 10 10 10 8 7 6 4 4 3 3 5 6 7
23 26 29 28 28 30 29 30 33 34 35 33 32 34 34 35 36 33 32 30 27 27 26 25 26 26 27 28 27 27 26 27 27 26 27 28 27 27 27 26 24 21 20 20 21 22 22 22 22 22 21 19 17 18 17 15 16 16 9 3 2 2 1 2 4 3 5 7 10 9 8 9 10 10 10 9 8 7 6 4 3 4 6 8 8
24 27 28 28 30 32 31 32 33 32 33 32 30 32 32 33 32 28 26 25 23 23 25 26 28 29 29 29 28 26 26 27 26 26 27 27 27 26 27 28 26 23 22 21 23 23 22 22 22 22 22 20 19 20 17 14 16 17 11 6 3 1 2 3 5 3 4 7 8 8 8 9 11 10 10 11 10 8 6 5 4 6 8 9 9
28 27 27 30 32 32 32 33 33 33 34 33 29 29 29 30 30 27 26 25 24 26 29 30 30 31 31 30 28 26 26 27 26 26 26 27 27 26 26 27 27 26 24 22 23 23 22 22 22 22 22 20 20 21 19 15 17 17 12 9 5 2 5 7 4 1 3 7 8 8 8 8 10 9 9 11 11 10 8 6 5 7 9 9 9
29 25 26 30 30 30 32 33 34 35 35 33 28 26 27 29 31 32 32 32 30 28 28 28 29 30 30 29 28 26 26 26 25 25 26 26 26 25 24 25 27 26 25 24 23 22 22 21 21 22 21 21 20 22 22 18 18 18 13 10 3 3 10 12 6 2 3 4 7 9 9 8 9 9 9 11 11 11 9 7 6 8 9 9 8
26 24 26 30 30 29 30 32 33 34 35 33 28 25 24 24 25 25 26 27 26 23 23 24 26 28 28 27 26 25 25 25 24 25 25 26 26 26 24 24 26 26 25 25 23 22 22 21 21 21 21 22 21 21 23 22 21 20 17 11 5 4 12 13 9 8 4 2 4 6 7 9 9 10 10 11 11 12 11 8 8 8 9 8 7
20 23 26 28 28 26 26 28 30 32 32 29 27 25 23 20 20 18 16 16 18 18 20 21 22 24 25 25 25 24 25 25 24 24 25 26 26 25 24 24 24 25 25 23 22 22 22 22 21 21 22 23 22 21 22 24 23 21 19 13 6 8 13 10 10 10 5 3 4 4 6 8 8 10 11 11 11 12 11 9 9 9 9 8 7
13 18 21 21 23 23 22 23 25 27 26 25 26 25 23 20 18 16 13 13 15 15 16 18 19 20 22 23 24 24 25 25 25 25 25 26 26 25 24 24 24 24 24 22 22 22 22 22 20 20 22 23 23 22 22 23 24 22 20 16 11 12 12 7 10 11 6 4 3 4 8 8 7 10 12 11 11 12 12 11 10 10 10 8 7
8 6 9 12 15 17 17 16 16 16 15 17 20 21 21 18 15 14 12 12 15 14 13 15 17 18 20 21 22 24 25 26 25 25 26 26 26 26 25 23 23 24 24 23 23 22 21 21 20 19 22 23 23 23 22 22 23 22 21 18 16 16 14 12 15 17 10 6 5 5 8 9 8 10 12 11 11 12 13 12 11 11 10 8 7
Wind_Direction
160 162 164 162 159 155 155 157 154 153 150 148 148 144 139 135 132 131 130 130 129 127 125 124 123 122 120 120 119 118 117 115 112 110 111 110 108 107 107 106 100 95 96 95 95 94 94 95 94 95 95 96 97 99 101 104 102 98 98 98 96 95 97 99 98 97 94 92 92 94 91 89 89 90 89 89 88 87 87 87 87 85 83 82 80
160 163 163 161 160 156 156 157 156 154 151 150 149 145 140 136 133 132 131 130 130 128 126 125 123 122 121 121 121 119 117 114 112 111 111 111 109 108 108 107 104 101 100 98 98 96 94 96 94 93 92 93 95 97 99 102 103 99 95 94 95 93 93 95 96 94 92 90 90 93 90 88 87 87 88 88 87 86 86 85 84 82 82 81 77
157 162 163 159 160 158 158 158 156 155 151 151 149 146 141 137 134 132 132 131 131 130 128 127 125 123 122 122 121 118 115 113 112 112 112 111 111 109 108 107 105 104 103 102 102 99 95 97 95 91 90 92 92 94 97 98 100 97 94 91 90 90 89 90 91 91 90 91 89 88 87 85 84 85 86 86 86 86 83 81 81 80 79 76 73
156 161 162 159 161 161 160 158 156 156 153 152 150 147 142 139 137 134 133 133 132 130 129 127 126 124 123 122 119 116 114 112 112 113 113 112 111 110 108 107 106 105 105 104 103 103 100 97 95 91 89 91 90 93 97 98 98 96 95 92 90 89 89 90 91 93 92 90 87 86 87 85 83 83 85 85 85 85 82 80 79 78 75 71 69
157 160 162 159 162 162 160 158 157 157 154 152 152 149 144 143 140 137 135 135 132 129 129 128 126 124 123 122 119 117 115 114 114 114 113 112 112 110 110 109 109 107 106 106 105 106 104 98 96 93 91 91 89 91 95 96 97 96 95 96 94 87 85 92 94 95 92 87 85 86 86 82 78 75 80 80 78 79 78 78 78 78 77 73 70
159 160 161 160 161 162 161 158 157 158 156 153 153 150 147 146 142 138 138 136 131 129 129 127 126 124 123 122 120 118 117 116 115 115 113 112 111 110 110 111 111 109 109 108 107 109 107 100 97 96 95 93 91 90 92 93 94 91 92 100 101 85 83 95 96 93 90 86 85 86 83 78 74 73 77 78 77 76 75 75 75 76 76 75 71
160 160 160 161 160 161 162 159 159 159 157 155 154 152 150 148 142 139 140 136 131 130 128 127 125 123 123 122 121 120 119 118 117 115 114 112 111 111 111 112 112 111 112 111 111 111 108 101 98 97 96 94 96 96 93 90 84 78 82 97 104 89 92 102 101 95 92 89 89 90 88 84 79 75 74 77 78 76 76 75 75 75 75 75 73
159 160 162 162 160 162 163 159 160 160 159 158 156 155 153 149 143 141 140 135 132 132 129 128 125 123 124 123 123 123 122 121 119 117 115 114 112 112 111 111 111 112 114 115 116 114 110 104 101 99 98 100 104 103 94 84 71 68 77 82 86 97 111 114 107 100 94 94 96 94 89 86 85 80 75 78 80 79 79 78 79 77 77 78 79
157 160 162 161 161 161 162 161 160 162 162 158 156 157 154 148 143 141 139 136 134 133 129 129 126 125 125 125 126 126 126 124 122 119 118 117 117 116 115 114 114 115 116 117 117 118 115 110 108 108 110 111 109 102 90 76 69 76 85 85 87 101 117 118 110 102 98 98 98 95 88 87 94 92 85 82 84 86 86 85 83 82 82 81 83
158 160 162 161 160 162 164 163 161 164 163 158 157 158 154 148 144 142 140 137 136 133 131 131 129 128 127 127 128 128 128 126 125 122 120 121 123 120 116 114 113 114 119 121 122 124 123 118 120 120 119 115 109 99 84 75 78 92 98 96 97 105 116 118 112 104 103 104 99 97 94 92 93 93 91 88 88 89 86 85 86 86 85 81 80
158 160 162 161 159 163 166 165 164 164 163 159 158 158 155 150 146 142 140 140 137 135 133 133 131 130 129 129 130 130 129 129 127 125 125 127 124 119 115 114 112 114 120 125 126 128 129 128 128 126 122 116 109 96 84 80 90 104 107 105 106 109 114 114 110 107 108 107 100 97 96 93 91 91 93 92 90 89 84 85 89 89 87 83 82
159 160 161 160 159 165 168 166 165 163 162 160 158 157 155 152 149 145 143 144 141 138 136 136 134 132 133 131 131 132 130 131 129 128 128 126 121 118 117 116 117 117 120 126 129 131 134 134 133 129 124 117 107 95 87 86 100 115 117 113 111 108 107 108 108 111 110 104 97 92 92 93 92 91 93 91 88 89 90 90 91 90 89 87 84
158 161 160 158 160 167 169 167 166 165 164 161 159 157 156 154 151 148 148 147 144 141 139 139 137 135 136 134 134 133 132 134 133 130 127 123 121 121 121 121 121 117 116 125 132 136 138 139 138 132 125 115 105 96 92 96 113 125 126 118 110 103 101 106 109 112 109 101 95 91 93 96 95 94 93 91 88 89 93 92 89 89 93 90 82
158 161 158 158 162 166 168 168 168 167 166 163 161 159 158 157 153 152 153 151 147 144 141 140 139 138 139 138 137 136 136 137 135 132 127 124 126 126 125 124 121 116 114 121 132 139 141 143 141 133 123 111 105 99 97 106 120 128 129 119 106 99 98 105 111 112 108 103 100 98 97 97 95 93 92 92 92 92 92 91 88 90 94 90 83
159 158 156 159 161 162 167 169 170 169 168 166 163 162 159 159 158 157 156 152 149 147 143 141 141 140 140 142 142 140 140 138 135 132 129 130 132 130 128 126 121 116 113 116 129 140 145 147 143 131 119 109 103 100 99 108 119 126 124 112 102 97 96 104 111 112 110 107 105 103 101 98 96 95 93 92 93 94 92 90 89 91 91 86 84
156 155 156 159 160 161 167 169 171 170 169 166 164 163 162 162 161 159 156 154 152 149 145 143 143 142 142 144 145 144 143 141 138 134 133 136 135 131 129 126 120 115 113 115 127 140 147 148 141 127 116 107 98 95 98 107 119 123 119 108 102 98 97 106 113 113 111 108 105 104 104 101 101 100 95 91 93 95 94 91 90 91 93 90 87
152 154 156 158 160 162 166 167 168 169 168 166 166 165 165 165 160 159 158 157 156 151 148 147 146 145 143 144 147 147 146 146 142 138 139 140 136 132 128 124 119 115 114 117 129 140 147 146 136 124 113 101 94 96 103 110 117 120 118 110 103 100 103 110 115 114 111 110 111 111 108 105 104 100 96 96 95 93 92 93 93 91 93 92 87
152 155 155 157 161 163 165 164 165 168 167 166 167 167 166 165 161 162 162 161 160 155 153 153 150 148 146 145 149 152 152 148 142 141 144 141 138 133 126 123 119 116 116 120 131 141 146 141 131 122 111 100 95 100 107 112 117 120 119 113 105 103 109 115 117 115 115 116 117 116 111 109 107 102 100 100 96 94 95 97 97 94 93 92 89
154 155 152 157 161 163 165 163 166 167 167 168 168 168 168 168 166 167 168 167 165 161 160 158 154 154 151 149 150 154 154 149 144 145 146 144 141 134 128 126 120 118 120 123 133 142 142 136 130 123 113 103 97 102 110 115 121 126 123 114 106 106 114 119 118 118 120 120 118 115 110 108 108 105 104 102 100 100 100 99 98 98 96 93 91
155 155 154 158 161 163 165 164 167 168 170 170 168 170 171 171 171 172 173 172 172 170 165 160 158 161 159 155 152 153 154 152 150 150 148 148 146 136 131 128 122 122 124 126 135 142 139 136 132 126 118 106 100 105 115 121 124 129 124 112 107 109 116 120 122 124 125 125 123 117 113 114 115 113 112 110 108 106 104 102 101 101 99 94 91
155 156 156 158 161 163 165 167 169 171 174 172 171 173 172 174 175 176 175 174 177 175 165 162 165 167 166 164 160 158 160 159 157 159 155 151 147 140 136 131 125 125 127 128 138 143 140 139 136 130 122 109 104 108 117 125 129 128 120 112 110 111 117 122 125 129 130 131 129 122 121 123 122 121 119 116 114 111 108 105 103 101 99 96 92
153 153 156 158 160 164 167 169 171 175 177 175 175 174 174 176 176 176 175 175 177 173 167 166 168 168 169 170 167 166 167 165 162 166 162 154 149 145 140 135 129 127 131 131 140 148 145 143 140 134 125 112 106 107 116 128 133 129 120 115 113 113 121 125 127 130 129 128 127 126 128 129 127 125 122 119 116 112 108 106 107 105 102 99 97
150 150 157 160 162 166 169 172 175 179 179 177 177 176 177 178 177 177 176 175 175 172 170 169 166 166 171 172 172 172 172 171 166 166 164 156 153 150 144 140 134 130 134 136 141 151 152 148 145 138 125 113 107 104 114 131 139 138 130 121 116 117 123 127 131 129 123 122 123 127 129 129 129 127 126 124 119 115 112 110 109 107 107 105 102
136 143 153 162 166 168 171 176 179 180 178 177 177 178 181 182 181 179 178 176 175 174 174 170 166 167 171 173 175 177 177 176 169 165 166 162 159 156 150 144 140 135 137 142 144 152 158 154 150 143 125 112 110 103 110 127 140 146 140 131 123 122 124 128 134 131 125 125 130 136 134 130 130 129 129 126 120 117 115 113 111 111 110 105 102
114 134 150 164 168 171 173 175 178 179 179 179 179 182 186 186 185 184 181 177 177 177 177 174 170 170 171 173 177 179 179 178 174 172 172 169 165 162 156 151 147 142 140 147 148 152 160 160 156 148 127 112 110 105 106 120 137 148 146 138 130 127 126 128 133 133 128 127 129 129 126 128 129 127 126 124 123 122 118 115 113 110 108 104 103
143 156 165 170 173 174 175 173 174 180 183 183 182 186 190 190 188 187 183 180 181 181 180 178 175 175 175 176 178 179 181 179 179 178 177 176 172 165 161 157 153 147 143 148 153 153 159 162 162 153 134 117 113 110 106 115 135 150 150 142 134 131 130 130 132 132 129 130 132 132 133 135 131 127 129 128 126 125 121 120 118 116 116 113 108
158 166 170 174 178 176 175 171 169 176 183 184 185 191 194 193 192 192 188 186 187 186 183 182 182 182 181 182 182 183 183 181 185 183 181 180 177 170 164 162 158 154 150 149 155 158 161 164 165 160 145 127 120 125 122 123 140 151 152 144 136 135 135 134 136 137 138 142 145 150 149 138 130 132 136 131 126 123 122 122 122 121 118 112 109
161 168 173 175 178 178 177 176 176 178 181 186 191 197 198 197 197 197 195 194 195 191 187 186 188 189 186 186 188 188 185 185 188 185 183 183 182 178 171 167 164 163 159 154 155 160 164 168 169 167 157 139 131 143 145 145 155 158 153 146 142 143 143 141 141 144 146 147 148 152 145 132 137 142 138 133 128 123 119 118 114 111 109 112 114
161 165 172 174 178 182 181 185 187 182 182 189 196 200 199 199 198 199 202 203 203 197 190 189 193 194 191 191 193 193 192 192 191 186 185 184 185 184 177 174 170 170 170 163 159 160 166 170 171 170 165 156 151 158 162 163 167 166 157 150 149 150 151 148 147 150 150 148 149 153 148 144 150 143 134 135 132 122 116 116 116 116 119 121 117
166 164 169 174 180 183 184 188 190 185 186 190 195 201 199 198 200 202 207 209 208 203 194 193 197 198 196 196 199 201 200 198 193 189 186 183 183 179 176 178 176 175 176 173 169 166 168 171 173 172 171 176 180 175 174 174 173 171 165 160 159 157 158 154 152 154 154 154 153 156 154 148 144 137 137 137 133 128 122 124 127 130 133 128 120
175 170 171 179 182 183 185 188 189 189 191 191 191 197 195 198 209 211 210 210 210 206 198 197 201 203 203 200 203 209 208 203 197 192 186 182 179 174 172 177 179 177 174 178 178 176 176 179 181 180 182 190 197 194 185 183 179 174 173 172 168 165 163 158 155 157 157 158 156 153 150 143 140 142 145 138 131 131 130 132 132 131 129 122 119
184 179 176 181 180 180 184 188 190 191 193 192 188 189 190 198 212 212 209 212 212 209 203 202 205 205 206 204 205 212 213 209 203 195 187 181 178 174 170 170 175 174 170 175 181 182 185 189 191 190 191 196 206 203 194 192 185 177 178 178 174 171 169 162 158 157 156 157 155 151 147 145 148 150 148 142 136 132 128 125 123 121 118 117 121
188 184 177 177 178 181 186 191 194 196 197 194 187 186 191 198 207 210 211 215 214 213 208 205 207 206 205 204 206 212 214 213 209 199 189 182 178 175 171 167 169 170 168 169 175 183 189 193 198 195 191 196 202 196 194 195 188 182 182 182 178 176 173 166 159 155 153 153 154 154 151 149 149 144 139 136 134 130 123 120 121 120 122 128 129
185 181 176 177 182 186 190 193 194 198 202 198 191 189 194 199 204 210 214 216 215 215 212 208 207 206 205 205 208 210 212 214 211 202 191 184 181 178 177 174 172 175 175 173 179 188 196 201 200 190 186 192 194 190 192 194 186 184 184 184 182 180 176 168 160 157 156 156 159 161 156 154 150 140 133 130 128 125 125 127 131 132 136 141 134
178 175 176 181 187 189 190 189 188 197 204 202 198 195 197 198 202 210 213 216 218 216 212 210 209 208 208 207 209 210 210 212 210 200 192 186 185 185 185 181 181 186 185 184 191 195 199 202 193 184 180 183 187 187 192 192 183 182 183 184 184 182 178 170 163 161 163 162 167 171 164 160 156 148 142 138 138 139 138 140 144 146 146 149 144
173 174 179 183 184 183 181 176 182 197 202 202 204 202 199 198 203 211 214 214 216 217 215 214 213 213 212 210 211 211 210 211 208 200 194 190 191 193 192 189 189 190 189 191 195 195 196 194 189 191 188 180 181 184 187 184 175 175 178 181 183 184 181 174 169 167 169 170 173 175 170 168 164 154 148 147 151 154 149 150 156 160 158 161 161
178 181 182 179 171 166 165 169 186 199 201 201 206 210 208 206 206 210 214 214 214 218 218 217 217 216 216 214 213 212 210 210 207 202 199 199 199 199 199 197 191 188 191 193 193 194 194 189 184 193 198 187 179 179 180 175 167 168 172 177 181 185 184 178 175 175 176 179 180 176 171 170 167 157 153 155 160 162 162 169 174 177 177 183 183
188 186 180 172 166 166 168 178 192 198 200 201 205 214 219 216 212 211 214 214 214 218 218 217 217 219 218 216 214 212 210 209 206 206 207 209 205 199 199 194 187 186 189 189 188 192 193 191 186 187 199 197 185 180 179 170 162 162 161 169 178 182 185 181 180 185 186 186 185 182 177 174 171 164 163 164 165 165 168 174 180 191 195 202 208
187 179 171 170 172 171 173 187 197 197 198 199 200 209 219 221 218 216 215 214 216 219 220 218 216 218 219 216 214 212 211 209 206 207 210 212 206 199 197 189 183 186 189 187 188 193 193 194 196 192 193 199 195 185 175 163 153 152 150 154 165 174 184 187 188 192 191 192 189 187 187 185 180 176 173 173 171 168 169 167 172 191 196 202 218
181 174 172 176 177 176 186 198 201 198 197 195 194 201 212 220 222 219 218 219 220 221 223 222 219 219 219 216 213 212 212 209 206 208 210 210 207 201 199 192 188 192 197 195 194 199 199 195 198 196 188 184 183 177 170 160 142 130 132 136 143 158 177 187 193 197 196 199 195 190 193 190 184 181 178 180 181 176 175 172 173 184 184 190 206
177 178 176 179 184 190 198 199 195 194 192 190 189 196 205 212 217 218 218 219 219 220 224 226 224 222 219 215 213 212 213 210 208 209 211 210 208 204 202 199 196 199 207 203 197 202 203 196 193 192 189 175 162 164 167 158 136 119 118 121 126 141 160 179 194 203 204 208 208 199 194 189 182 179 178 183 187 183 181 176 175 184 179 180 184
181 184 182 185 192 196 198 192 187 189 191 190 188 192 203 208 210 214 215 215 217 217 221 226 226 222 218 214 213 213 214 212 210 211 212 211 209 205 204 206 204 204 209 204 197 201 201 196 190 186 187 177 165 166 168 158 137 128 126 116 115 128 147 175 195 214 216 217 221 213 194 186 180 176 180 187 191 187 175 167 171 180 177 175 170
184 186 188 191 193 196 195 190 190 194 197 197 189 186 196 205 208 211 211 211 214 215 218 222 222 218 215 212 211 212 213 212 210 211 212 212 211 209 209 211 209 203 204 200 197 200 198 196 193 188 183 172 165 170 173 167 147 132 121 115 113 111 141 186 189 213 221 221 227 221 195 190 185 181 186 192 194 183 160 156 171 175 171 169 164
184 189 192 191 194 198 198 193 196 201 206 209 199 188 190 198 204 208 208 208 211 214 215 217 217 215 212 210 210 211 212 210 209 209 211 212 212 211 212 211 207 200 199 200 199 198 197 195 194 192 184 169 162 169 175 176 164 147 125 99 89 98 204 186 150 178 211 216 226 222 209 203 191 183 190 196 196 181 162 159 166 170 169 164 163
193 195 192 193 199 202 199 196 199 202 206 212 207 195 192 194 196 199 201 203 207 210 211 211 210 209 209 209 209 210 211 210 208 208 209 211 211 210 211 209 205 201 200 203 203 200 200 197 195 193 189 180 170 171 175 180 180 172 154 137 124 155 216 149 139 158 194 197 204 209 212 204 191 188 194 199 196 183 174 170 161 166 169 165 164
201 200 196 199 202 202 199 196 199 201 203 210 208 201 197 192 189 188 189 193 200 206 207 207 204 204 207 208 208 207 208 210 209 208 208 209 210 209 210 209 207 204 202 205 207 204 201 199 198 195 194 193 180 173 178 184 189 185 169 157 156 196 177 151 146 161 174 184 189 192 198 193 194 199 195 192 192 189 188 181 169 170 170 167 168
203 200 201 205 204 202 199 197 199 201 202 206 207 205 203 198 195 194 194 195 199 204 207 207 205 205 207 208 209 207 207 210 209 208 208 208 209 209 210 211 209 205 202 204 208 208 205 200 200 199 198 199 188 180 183 185 190 194 188 179 186 235 184 166 168 164 149 186 190 188 194 196 200 203 196 192 194 197 198 192 181 176 174 171 173
201 200 206 210 208 204 199 198 202 204 204 207 209 209 209 208 207 207 208 204 201 202 204 206 207 206 207 209 211 210 208 210 211 209 208 208 209 209 210 212 210 205 202 204 208 210 209 204 200 201 203 204 201 195 191 188 192 197 197 201 237 231 186 177 179 166 135 149 175 180 195 201 201 199 199 200 200 203 206 201 191 185 184 181 183
203 204 208 212 213 208 201 201 205 206 207 209 210 211 211 214 217 223 229 220 207 205 204 205 207 205 205 208 211 212 209 210 213 211 208 208 209 209 211 213 211 208 203 204 208 210 212 209 203 203 205 207 209 208 202 198 199 198 196 203 214 184 179 184 183 169 141 143 162 174 184 188 196 196 197 200 203 209 211 209 201 195 195 194 197
216 211 211 216 217 214 209 209 210 210 211 212 211 210 212 217 223 226 231 226 214 210 206 205 208 208 206 206 210 212 211 209 211 212 210 209 209 210 213 213 212 211 206 205 209 211 212 212 209 205 205 208 210 211 211 210 207 202 198 199 189 173 171 177 182 176 156 145 162 178 176 175 185 191 195 201 204 207 210 212 207 202 204 204 209
325 272 248 246 240 233 230 229 225 221 221 220 215 213 216 222 229 229 227 226 218 214 209 203 208 213 212 210 211 213 212 209 210 213 212 211 211 212 215 216 214 213 210 209 211 214 213 211 212 209 207 209 212 213 215 216 212 206 204 204 201 194 192 196 193 185 172 156 150 162 173 176 184 191 196 204 209 205 207 211 210 210 210 210 216
Height
766 767 769 769 769 770 772 773 776 777 779 781 782 783 783 784 784 784 785 786 786 787 788 789 790 791 792 793 795 796 797 798 799 799 800 802 803 803 804 805 805 806 806 807 808 808 809 809 810 810 811 811 811 812 812 812 813 813 814 814 814 815 815 815 814 814 814 814 815 815 815 815 816 816 816 816 816 817 817 818 818 818 818 818 818
764 767 768 769 769 770 772 773 776 778 780 782 783 784 784 785 785 786 786 787 788 788 789 790 791 792 793 794 795 796 798 798 799 800 801 803 804 804 805 806 806 807 808 809 810 810 810 810 811 812 812 813 813 813 813 814 814 815 815 815 816 816 816 816 815 815 815 816 817 817 816 816 817 817 817 817 818 818 819 819 819 819 819 819 819
763 767 768 769 770 770 772 774 776 779 781 782 784 785 786 786 787 787 787 788 789 789 790 791 792 793 794 795 796 797 798 799 800 801 802 804 805 805 806 807 807 808 809 810 811 811 811 812 813 813 814 814 814 814 815 816 816 817 817 817 817 817 818 818 817 816 816 817 818 817 817 818 818 819 819 819 819 820 820 820 820 820 820 820 820
764 767 769 770 770 771 772 774 777 779 782 783 785 786 787 788 788 788 788 789 789 790 791 792 793 794 795 796 797 798 799 800 801 802 804 805 806 806 807 808 809 809 810 811 812 813 813 813 814 815 815 815 816 816 817 818 818 818 818 819 819 819 819 820 819 818 818 818 818 818 818 820 820 821 821 821 821 821 821 822 822 822 822 822 821
763 766 768 770 770 771 773 775 778 780 783 784 786 787 788 788 789 789 789 790 790 792 792 793 794 795 796 797 798 800 801 802 803 804 805 806 807 808 809 810 810 811 811 812 813 814 815 815 815 816 816 817 818 818 818 819 819 819 820 820 820 821 821 822 821 820 819 819 819 819 820 821 821 822 822 822 822 822 822 823 823 823 823 823 823
762 765 768 770 771 772 774 776 779 781 783 785 786 788 789 789 790 790 790 791 792 793 794 794 795 796 797 798 800 801 802 803 804 805 806 807 808 809 810 811 811 812 812 813 814 815 816 816 816 817 817 818 819 819 819 820 820 821 821 822 822 822 823 823 822 822 821 821 821 820 821 821 821 822 822 822 822 823 823 824 824 825 824 824 824
762 765 767 769 771 772 775 777 780 782 784 786 787 788 789 790 790 791 791 792 793 794 795 796 797 798 799 800 801 802 804 805 806 807 807 808 809 810 811 812 812 813 813 814 815 816 817 817 818 818 819 819 819 820 820 821 821 822 822 822 822 823 824 824 824 824 824 824 823 823 822 822 822 823 823 823 824 824 825 825 826 826 826 825 825
763 765 767 769 771 773 775 778 781 783 785 787 788 789 790 791 791 791 792 793 795 796 797 798 798 799 800 801 802 804 805 806 807 808 809 809 810 812 812 813 813 814 814 815 816 817 818 818 819 819 820 820 821 821 822 822 822 822 822 822 822 823 824 825 825 826 826 826 826 825 825 825 825 825 825 825 825 826 826 827 827 827 827 827 827
765 766 767 769 771 773 776 779 782 784 786 787 789 790 791 792 792 793 794 795 796 797 798 799 800 801 801 803 804 805 806 807 808 809 810 810 812 813 813 814 814 814 815 816 817 818 819 819 820 820 821 821 822 823 823 823 823 823 823 823 823 824 825 826 827 827 827 828 827 827 827 827 827 827 827 827 827 828 828 828 828 829 829 829 828
765 767 768 770 772 774 777 780 783 785 787 788 790 791 792 793 793 794 795 796 797 798 800 801 801 802 803 804 805 807 807 808 809 810 811 812 812 813 814 815 815 815 816 816 817 818 819 820 821 821 822 823 823 824 824 824 824 824 824 824 825 825 826 827 827 828 828 829 829 829 829 829 829 829 829 829 829 829 829 830 830 830 830 830 830
766 768 769 771 773 775 778 781 784 786 788 789 791 791 793 794 795 796 797 798 799 800 801 802 803 804 805 806 807 808 809 810 810 811 812 813 813 814 815 816 816 817 817 817 818 819 820 821 821 822 823 824 825 825 825 825 825 825 825 826 826 827 827 828 828 828 829 829 830 830 831 831 831 831 831 831 831 831 831 831 831 831 831 831 831
767 769 770 772 774 777 779 782 785 788 789 790 792 792 794 795 796 797 798 799 800 801 802 803 804 805 806 807 808 809 810 811 811 812 813 813 814 815 816 817 817 818 818 818 819 820 821 822 822 823 824 825 826 826 826 826 826 827 827 827 828 828 828 828 828 829 829 830 830 831 832 832 832 832 833 833 832 832 833 833 833 833 833 833 833
768 769 770 773 775 779 781 784 786 789 790 792 793 794 795 796 798 799 800 801 802 803 803 804 805 806 807 808 809 810 811 812 813 813 814 814 815 816 817 818 818 819 819 819 820 821 822 823 823 825 825 826 826 826 826 826 827 827 828 828 829 829 829 829 829 829 830 830 831 832 832 833 833 834 834 834 834 834 834 834 834 834 834 834 834
767 769 771 774 777 781 783 786 788 790 792 793 794 795 796 798 799 800 801 802 803 804 805 806 807 808 809 810 811 811 812 813 813 814 815 815 816 817 818 819 819 820 820 820 821 822 823 823 824 825 826 827 827 827 827 827 828 828 829 829 830 830 829 829 830 830 830 831 832 833 833 834 834 835 835 835 835 835 836 836 836 836 836 835 835
766 769 772 775 779 782 785 787 789 791 793 794 795 797 798 799 801 802 803 804 805 806 806 808 808 810 810 811 812 812 813 814 814 815 815 816 817 818 818 819 820 820 821 821 821 822 823 824 825 826 827 827 827 827 828 828 828 829 830 830 830 830 830 830 830 831 831 832 833 834 834 835 836 836 836 836 836 837 837 837 837 837 837 837 837
768 771 774 778 781 784 786 788 790 792 794 796 797 798 800 801 803 804 806 806 807 808 809 810 810 811 812 813 813 814 814 815 815 816 816 817 817 818 819 820 820 821 821 822 822 823 824 825 826 827 828 827 827 828 828 829 829 830 831 831 831 831 831 831 831 831 832 833 834 835 835 836 837 837 837 837 838 838 838 839 839 839 839 839 838
772 774 776 780 782 785 787 790 792 794 795 797 799 800 802 803 805 806 808 808 809 810 811 812 812 813 814 814 815 815 815 816 816 817 817 818 818 819 819 820 821 821 822 822 823 823 824 825 826 827 828 828 828 829 829 830 831 832 832 832 832 832 832 832 832 833 833 834 835 835 836 837 837 838 838 838 839 839 839 840 840 840 840 840 840
775 776 778 781 784 786 789 791 793 795 797 799 800 802 803 805 806 808 809 810 810 811 812 813 814 815 815 816 816 817 817 817 818 818 818 819 819 820 820 821 821 822 823 823 823 824 825 826 827 828 829 829 829 830 830 831 832 833 833 833 833 833 833 833 833 834 835 835 835 836 837 837 838 838 839 839 840 840 840 841 841 841 841 841 841
776 778 780 783 785 788 790 792 794 796 798 799 801 803 804 805 806 808 809 810 811 812 813 814 815 816 817 817 818 818 818 819 819 819 819 820 820 821 821 822 822 823 824 824 824 824 825 827 828 829 830 830 830 831 831 832 833 834 834 834 834 834 834 835 835 835 836 836 836 837 837 838 838 839 840 840 841 841 841 841 841 842 842 842 842
777 778 780 783 786 788 791 793 794 796 798 799 801 802 804 805 806 807 808 809 810 811 813 814 815 816 817 818 819 819 820 820 820 820 821 821 821 822 822 823 823 824 825 825 825 825 826 827 828 830 830 831 831 832 833 834 834 834 835 835 835 835 835 836 836 836 837 837 838 838 839 839 839 840 840 841 842 842 842 842 842 842 842 842 842
780 780 781 784 786 789 791 793 794 796 797 799 800 801 803 804 805 806 808 809 810 811 812 814 815 816 817 818 819 820 820 821 821 822 822 822 822 823 823 824 824 825 826 827 826 827 827 828 829 830 831 832 832 833 834 835 835 836 836 836 836 836 836 837 837 838 838 838 839 839 840 840 840 840 841 841 842 842 843 843 843 843 843 844 844
782 783 784 785 787 790 791 793 794 796 797 799 800 801 803 804 805 807 808 809 810 811 812 814 815 816 817 818 819 820 821 822 822 822 823 823 824 824 824 825 825 826 827 828 828 828 828 829 830 831 832 832 833 833 834 836 837 837 837 837 837 837 837 838 838 839 840 840 841 841 841 841 841 841 841 842 842 842 843 844 844 844 844 845 845
783 786 787 788 789 790 792 793 794 796 797 799 800 802 803 804 805 806 807 809 810 811 812 814 815 817 818 819 820 820 821 822 823 823 824 824 825 825 825 825 826 827 828 829 829 829 829 830 831 832 832 833 833 834 834 836 837 838 838 838 838 838 838 839 839 840 840 841 842 843 843 843 843 842 842 842 842 843 843 844 845 845 845 845 845
787 791 792 792 792 792 793 795 796 797 799 800 801 802 803 804 805 806 807 808 810 811 813 814 815 817 818 819 820 821 822 823 824 824 824 825 826 826 826 826 826 827 829 830 830 831 831 831 832 833 833 833 834 834 835 836 837 838 839 839 839 840 840 840 841 841 841 842 843 844 844 845 845 845 843 842 842 843 844 845 845 846 846 846 846
791 796 797 796 796 795 796 796 798 799 800 801 801 802 803 804 805 806 807 809 810 812 813 814 816 817 819 820 821 822 822 823 824 824 825 825 825 826 827 827 827 828 829 830 831 832 832 832 833 834 834 834 834 835 836 836 837 838 839 840 840 841 841 841 842 842 843 843 844 845 845 845 846 847 846 844 842 843 844 845 846 846 846 847 847
787 791 793 794 796 796 797 798 799 800 801 802 803 804 805 806 807 808 810 811 812 813 814 815 816 818 819 820 821 822 822 822 824 824 825 825 825 826 827 828 828 828 829 830 831 832 833 833 834 835 835 835 835 836 837 838 838 839 840 841 841 842 842 842 843 843 843 844 845 845 846 846 847 848 848 848 845 843 844 845 846 847 847 848 848
781 784 787 790 793 795 797 798 799 801 803 805 806 807 808 809 810 811 812 812 813 813 814 816 817 818 819 820 821 822 822 822 823 824 825 825 825 826 827 829 829 830 830 830 831 832 833 834 835 835 836 836 836 837 838 839 839 840 841 842 842 842 843 843 843 844 844 845 845 846 846 847 847 848 849 849 848 846 844 845 847 848 848 849 849
779 781 784 787 790 793 796 797 798 798 800 804 806 807 807 809 811 813 814 814 813 813 814 816 817 819 820 821 822 822 822 822 823 824 825 825 826 827 828 829 830 831 831 831 831 832 833 834 835 836 837 837 837 838 838 839 840 840 841 842 843 843 843 844 844 844 844 845 846 846 847 847 848 848 849 849 849 848 846 846 847 848 849 850 850
780 781 783 785 787 789 792 794 796 796 796 799 801 803 805 807 810 812 814 815 814 814 815 816 818 819 821 821 822 823 822 822 822 823 824 825 826 827 828 829 830 831 831 831 832 832 833 834 835 836 837 837 838 838 839 840 840 841 842 843 843 844 844 844 844 844 845 845 846 847 847 848 848 848 849 849 850 850 848 848 848 850 850 851 850
780 781 782 785 786 786 789 791 794 794 793 795 797 800 804 808 810 810 812 814 815 815 816 817 819 820 821 822 823 823 822 822 822 823 824 825 826 827 828 829 830 831 832 832 832 833 833 834 835 836 837 837 838 839 839 840 841 841 842 843 844 844 845 845 845 845 845 846 847 848 848 848 849 849 849 850 850 850 850 849 850 850 851 851 851
779 779 780 782 784 786 788 789 790 791 792 792 793 798 804 808 809 809 811 814 815 815 816 816 818 820 821 822 823 823 823 823 822 823 823 825 826 827 827 829 830 831 831 832 832 833 834 834 835 837 838 838 838 839 840 841 841 842 842 843 844 844 845 845 845 846 846 847 848 848 849 849 850 850 850 850 851 851 851 850 850 851 851 851 852
777 777 778 780 783 786 788 789 790 790 790 789 790 794 800 804 806 808 810 813 814 815 815 816 817 819 820 821 822 823 824 823 823 823 823 824 825 826 827 828 830 830 831 832 832 833 834 835 836 837 838 838 838 839 840 841 842 842 842 843 844 845 845 846 846 846 847 847 849 849 850 850 850 851 851 851 851 851 851 851 851 852 852 852 852
774 776 778 779 782 784 785 787 788 790 789 789 790 792 797 800 803 806 809 811 813 814 814 815 816 818 819 820 822 823 824 824 824 824 824 825 825 826 827 828 829 830 831 831 832 833 833 834 836 837 837 838 838 839 840 841 842 843 843 843 844 845 846 846 846 847 847 848 849 850 850 850 851 851 851 851 852 852 852 852 853 853 854 854 854
773 776 778 779 781 782 783 785 788 792 793 794 792 791 794 797 800 803 805 808 810 811 813 814 815 816 817 819 820 822 823 824 824 825 824 825 825 826 827 828 829 830 831 831 832 833 833 834 835 837 837 838 838 839 840 841 842 843 844 844 845 846 846 847 847 847 848 849 850 851 851 851 851 852 852 852 852 853 853 853 854 854 855 855 855
775 778 779 779 780 782 785 787 790 793 795 797 795 792 792 795 797 801 803 806 808 809 811 812 814 815 816 818 819 821 822 823 824 824 824 825 825 826 827 828 829 830 830 831 832 832 833 834 835 836 837 838 839 840 841 841 842 843 844 845 845 846 847 847 848 848 849 850 851 851 851 852 852 852 852 853 853 854 854 854 855 855 855 856 856
778 779 780 780 783 786 790 793 794 794 793 795 797 796 795 795 797 800 803 805 808 809 810 811 813 814 816 817 818 820 821 822 823 824 824 824 825 826 827 828 829 829 830 831 832 832 833 834 835 836 837 838 839 840 841 842 842 843 844 845 846 846 847 848 848 849 850 851 851 852 852 852 852 852 853 853 854 854 855 855 855 856 856 856 857
779 780 780 782 786 788 791 793 794 794 795 797 800 800 799 797 797 800 802 804 806 808 808 810 812 813 815 816 817 819 820 821 822 823 823 824 825 825 826 827 828 829 830 831 832 832 833 833 835 836 837 838 839 840 841 842 843 844 845 845 846 847 847 848 849 849 850 851 852 852 853 853 853 853 853 854 854 855 855 856 856 856 857 857 857
777 779 781 783 784 786 788 790 790 789 792 795 798 801 801 800 799 800 802 803 805 806 806 808 809 811 813 815 817 818 819 820 821 822 823 824 824 825 825 827 828 829 829 831 832 832 833 833 834 836 837 838 839 840 841 842 843 844 845 846 846 847 848 849 849 850 851 851 852 853 853 854 854 854 854 854 855 855 856 856 856 856 856 857 858
777 780 782 783 782 785 787 787 785 784 785 788 792 796 800 801 799 800 803 804 805 805 804 804 806 809 811 814 816 817 818 819 820 821 822 823 824 824 825 826 827 827 828 829 831 832 832 833 834 835 837 838 838 839 840 841 843 844 845 846 847 847 848 849 850 850 851 852 852 853 853 854 854 854 854 854 855 856 856 856 856 856 857 857 857
777 779 780 781 782 784 784 782 780 781 782 783 786 790 795 798 798 799 801 803 804 804 803 803 805 807 809 812 815 816 817 818 819 820 821 822 823 823 824 825 826 826 826 827 829 830 831 832 834 835 836 837 838 838 839 840 842 844 846 847 847 848 849 849 850 851 852 852 852 852 853 853 854 854 854 855 855 856 856 856 856 856 857 857 857
776 777 777 778 778 778 777 777 779 780 780 779 779 784 788 792 794 795 798 800 801 803 802 803 804 806 809 811 813 815 816 817 818 819 820 821 822 822 823 824 825 825 825 825 827 829 830 832 833 834 835 836 837 838 839 839 841 844 846 847 848 849 850 850 851 851 852 852 852 851 852 853 854 854 855 855 856 856 856 856 856 857 857 857 858
773 774 775 774 774 775 775 777 779 779 778 776 772 775 780 785 788 791 794 796 798 800 801 802 804 805 808 810 811 813 814 815 816 817 818 819 820 821 822 823 824 825 825 825 826 828 829 831 832 833 834 835 836 837 838 839 840 843 845 847 849 850 850 851 851 852 852 852 852 851 852 853 854 855 855 856 856 856 857 857 857 857 857 858 858
771 772 773 773 774 777 777 778 778 777 777 776 770 768 773 778 783 787 790 793 795 798 800 801 803 805 807 809 810 811 812 813 814 815 816 817 819 820 820 821 822 824 824 824 826 827 829 830 831 832 833 834 835 836 838 838 839 842 845 847 849 850 851 851 851 852 852 852 852 852 852 853 854 855 855 856 857 856 857 857 857 857 858 858 859
772 772 772 774 775 775 776 777 777 777 778 778 774 770 771 775 779 783 787 790 793 797 799 801 802 804 805 807 808 809 810 811 812 813 814 815 817 818 819 820 821 822 823 824 825 827 828 829 830 830 830 832 834 836 837 838 838 840 844 848 849 851 852 851 851 852 852 852 852 852 853 854 854 855 855 856 857 857 857 857 857 858 858 859 859
772 771 772 773 772 772 774 776 776 777 777 778 778 775 774 775 778 783 786 789 792 795 797 798 800 801 803 804 806 807 808 809 810 811 812 813 815 816 817 819 820 821 822 823 825 826 827 828 828 828 829 829 831 834 836 837 838 838 840 844 848 851 852 850 851 852 852 852 853 853 853 854 854 855 855 856 856 856 857 857 858 858 858 859 860
769 770 772 771 770 771 773 774 775 776 776 777 778 778 777 777 778 780 783 786 789 790 791 793 796 798 800 802 804 805 807 808 808 809 810 812 813 815 816 817 819 820 821 822 824 825 826 826 826 827 827 828 829 832 834 836 838 839 839 840 843 846 847 849 851 853 852 852 853 853 853 854 855 855 856 856 856 856 857 857 858 858 859 859 860
767 770 772 771 770 771 772 773 774 774 775 776 778 779 780 779 778 777 778 780 782 784 788 792 795 798 800 801 803 804 805 806 807 808 809 810 812 813 815 816 817 819 820 821 822 824 825 825 826 826 826 827 828 830 832 834 836 838 839 840 841 842 843 846 848 850 852 852 852 853 854 854 855 855 856 856 856 857 857 857 858 859 859 860 860
767 770 770 769 769 770 772 773 773 774 775 776 778 780 782 783 782 782 781 780 782 785 788 792 794 797 799 801 802 803 804 805 805 806 808 809 810 812 813 814 816 818 819 820 820 822 823 824 825 825 825 826 827 828 830 833 834 836 838 839 841 842 843 844 845 846 849 851 852 852 853 854 854 855 856 856 857 857 857 858 858 859 860 860 861
768 769 768 768 769 771 772 772 772 773 775 776 778 780 782 784 784 785 784 784 785 787 788 791 794 796 798 799 800 801 802 803 804 805 806 808 809 811 812 813 814 816 818 818 819 820 822 823 823 824 824 825 827 828 829 831 832 834 836 838 840 841 843 844 845 846 847 849 851 851 852 853 854 855 856 856 857 857 858 858 859 859 860 861 861
771 771 770 770 770 772 773 773 774 775 777 778 778 780 782 783 784 784 785 786 787 788 789 791 793 795 797 797 798 799 800 801 802 804 805 806 808 809 811 812 813 815 816 817 817 818 820 821 821 822 823 824 826 827 828 830 832 833 835 837 838 840 842 843 845 845 846 848 849 850 851 852 853 854 855 856 856 857 858 858 859 860 861 861 862
777 776 776 776 775 775 776 777 779 781 782 782 782 782 783 783 784 785 785 786 788 789 791 792 793 794 795 796 797 797 797 799 801 803 804 805 806 808 809 810 811 813 814 815 815 817 818 819 820 821 822 824 825 826 828 829 831 833 834 836 837 838 839 840 841 843 844 846 848 850 851 852 853 854 854 856 856 857 858 859 859 860 861 861 862